Location: ???????????
(54.5822°N, 39.1075°E)
Time: 03:42:04
(UTC+00:00)

Cosmos 1975 - Pass Details

Date: 19 May 2025
Orbit: 487 x 506 km, 82.5° (Epoch: 19 June)

Event Time Altitude Azimuth Distance (km) Brightness Sun altitude
Rises 21:09:29 0° 338° (NNW) 2,578 7.7 -15.4°
Reaches altitude 10° 21:11:55 10° 323° (NW) 1,689 6.1 -15.4°
Maximum altitude 21:14:49 22° 272° (W) 1,112 4.4 -15.4°
Enters shadow 21:16:33 16° 234° (SW) 1,345 4.5 -15.4°
